Location: Brantley
(31.5822°N, 86.2569°W)
Time: 22:42:08
(UTC+00:00)

A-11 Canister half - Pass Details

Date: 21 February 2026
Orbit: 1525 x 1683 km, 47.3° (Epoch: 10 March)

Event Time Altitude Azimuth Distance (km) Brightness Sun altitude
Rises 02:25:29 0° 307° (NW) 4,676 12.3 -36.6°
Reaches altitude 10° 02:28:43 10° 314° (NW) 3,691 11.5 -37.3°
Enters shadow 02:36:06 44° 2° (N) 2,012 9.5 -38.8°
